Time,TemperatureF,DewpointF,PressureIn,WindDirection,WindDirectionDegrees,WindSpeedMPH,WindSpeedGustMPH,Humidity,HourlyPrecipIn,Conditions,Clouds,dailyrainin,SoftwareType,DateUTC
2013-01-14 00:03:00,16.0,14.0,-100.00,SSE,160,1.0,2.0,89,-99.99,,,-99.99,,2013-01-14 06:03:00,
2013-01-14 00:12:00,16.0,14.0,-100.00,NW,305,0.0,5.0,90,-99.99,,,-99.99,,2013-01-14 06:12:00,
2013-01-14 00:22:00,16.0,13.0,-100.00,NW,315,0.0,2.0,90,-99.99,,,-99.99,,2013-01-14 06:22:00,
2013-01-14 00:33:00,16.0,13.0,-100.00,NW,315,0.0,2.0,90,-99.99,,,-99.99,,2013-01-14 06:33:00,
2013-01-14 00:43:00,15.0,13.0,-100.00,WNW,285,0.0,3.0,90,-99.99,,,-99.99,,2013-01-14 06:43:00,
2013-01-14 00:53:00,15.0,12.0,-100.00,SSW,195,2.0,4.0,91,-99.99,,,-99.99,,2013-01-14 06:53:00,
2013-01-14 01:02:00,15.0,12.0,-100.00,SSW,195,2.0,4.0,91,-99.99,,,-99.99,,2013-01-14 07:02:00,
2013-01-14 01:12:00,14.0,12.0,-100.00,South,190,2.0,4.0,92,-99.99,,,-99.99,,2013-01-14 07:12:00,
2013-01-14 01:22:00,14.0,13.0,-100.00,SSW,205,2.0,4.0,93,-99.99,,,-99.99,,2013-01-14 07:22:00,
2013-01-14 01:33:00,14.0,13.0,-100.00,SSW,205,2.0,4.0,93,-99.99,,,-99.99,,2013-01-14 07:33:00,
2013-01-14 01:42:00,14.0,13.0,-100.00,SSW,205,2.0,4.0,93,-99.99,,,-99.99,,2013-01-14 07:42:00,
2013-01-14 01:53:00,14.0,13.0,-100.00,SSW,195,4.0,5.0,95,-99.99,,,-99.99,,2013-01-14 07:53:00,
2013-01-14 02:02:00,14.0,13.0,-100.00,SSW,195,4.0,5.0,95,-99.99,,,-99.99,,2013-01-14 08:02:00,
2013-01-14 02:12:00,15.0,13.0,-100.00,SSW,195,2.0,7.0,95,-99.99,,,-99.99,,2013-01-14 08:12:00,
2013-01-14 02:22:00,14.0,13.0,-100.00,SSW,200,4.0,5.0,95,-99.99,,,-99.99,,2013-01-14 08:22:00,
2013-01-14 02:32:00,14.0,13.0,-100.00,SSW,200,4.0,5.0,95,-99.99,,,-99.99,,2013-01-14 08:32:00,
2013-01-14 02:42:00,14.0,13.0,-100.00,SSW,205,4.0,6.0,95,-99.99,,,-99.99,,2013-01-14 08:42:00,
2013-01-14 02:53:00,14.0,13.0,-100.00,SSW,205,3.0,5.0,96,-99.99,,,-99.99,,2013-01-14 08:53:00,
2013-01-14 03:01:00,14.0,13.0,-100.00,SW,220,3.0,6.0,98,-99.99,,,-99.99,,2013-01-14 09:01:00,
2013-01-14 03:02:00,14.0,13.0,-100.00,SSW,205,3.0,5.0,96,-99.99,,,-99.99,,2013-01-14 09:02:00,
2013-01-14 03:12:00,14.0,13.0,-100.00,SW,220,2.0,4.0,97,-99.99,,,-99.99,,2013-01-14 09:12:00,
2013-01-14 03:22:00,14.0,14.0,-100.00,SW,215,3.0,4.0,98,-99.99,,,-99.99,,2013-01-14 09:22:00,
2013-01-14 03:33:00,14.0,13.0,-100.00,SW,220,3.0,6.0,98,-99.99,,,-99.99,,2013-01-14 09:33:00,
2013-01-14 03:43:00,14.0,13.0,-100.00,SW,220,3.0,6.0,98,-99.99,,,-99.99,,2013-01-14 09:43:00,
2013-01-14 03:53:00,14.0,13.0,-100.00,SW,220,3.0,6.0,98,-99.99,,,-99.99,,2013-01-14 09:53:00,
2013-01-14 04:12:00,14.0,14.0,-100.00,SW,220,4.0,6.0,98,-99.99,,,-99.99,,2013-01-14 10:12:00,
2013-01-14 04:22:00,14.0,13.0,-100.00,SW,230,1.0,4.0,98,-99.99,,,-99.99,,2013-01-14 10:22:00,
2013-01-14 04:32:00,14.0,13.0,-100.00,SW,230,1.0,4.0,98,-99.99,,,-99.99,,2013-01-14 10:32:00,
2013-01-14 04:42:00,14.0,13.0,-100.00,West,270,2.0,6.0,98,-99.99,,,-99.99,,2013-01-14 10:42:00,
2013-01-14 04:53:00,14.0,14.0,-100.00,WSW,240,4.0,6.0,98,-99.99,,,-99.99,,2013-01-14 10:53:00,
2013-01-14 05:02:00,14.0,14.0,-100.00,WSW,240,4.0,6.0,98,-99.99,,,-99.99,,2013-01-14 11:02:00,
2013-01-14 05:12:00,14.0,14.0,-100.00,WSW,240,1.0,6.0,98,-99.99,,,-99.99,,2013-01-14 11:12:00,
2013-01-14 05:22:00,15.0,14.0,-100.00,WSW,245,4.0,8.0,98,-99.99,,,-99.99,,2013-01-14 11:22:00,
2013-01-14 05:32:00,15.0,14.0,-100.00,WSW,245,4.0,8.0,98,-99.99,,,-99.99,,2013-01-14 11:32:00,
2013-01-14 05:42:00,15.0,14.0,-100.00,West,260,1.0,9.0,98,-99.99,,,-99.99,,2013-01-14 11:42:00,
2013-01-14 05:53:00,14.0,14.0,-100.00,WNW,295,4.0,6.0,98,-99.99,,,-99.99,,2013-01-14 11:53:00,
2013-01-14 06:03:00,14.0,14.0,-100.00,WNW,295,4.0,6.0,98,-99.99,,,-99.99,,2013-01-14 12:03:00,
2013-01-14 06:12:00,14.0,14.0,-100.00,NW,305,4.0,6.0,98,-99.99,,,-99.99,,2013-01-14 12:12:00,
2013-01-14 06:23:00,14.0,14.0,-100.00,NW,305,1.0,6.0,98,-99.99,,,-99.99,,2013-01-14 12:23:00,
2013-01-14 06:33:00,14.0,14.0,-100.00,NW,305,1.0,6.0,98,-99.99,,,-99.99,,2013-01-14 12:33:00,
2013-01-14 06:43:00,14.0,14.0,-100.00,NW,315,3.0,6.0,98,-99.99,,,-99.99,,2013-01-14 12:43:00,
2013-01-14 06:53:00,14.0,14.0,-100.00,NW,305,4.0,6.0,98,-99.99,,,-99.99,,2013-01-14 12:53:00,
2013-01-14 07:03:00,14.0,14.0,-100.00,NW,305,4.0,6.0,98,-99.99,,,-99.99,,2013-01-14 13:03:00,
2013-01-14 07:12:00,14.0,13.0,-100.00,NW,320,4.0,6.0,97,-99.99,,,-99.99,,2013-01-14 13:12:00,
2013-01-14 07:23:00,14.0,13.0,-100.00,WNW,290,4.0,9.0,97,-99.99,,,-99.99,,2013-01-14 13:23:00,
2013-01-14 07:33:00,14.0,13.0,-100.00,NW,305,2.0,6.0,96,-99.99,,,-99.99,,2013-01-14 13:33:00,
2013-01-14 07:43:00,14.0,13.0,-100.00,NW,305,2.0,6.0,96,-99.99,,,-99.99,,2013-01-14 13:43:00,
2013-01-14 07:53:00,14.0,13.0,-100.00,NW,310,2.0,6.0,96,-99.99,,,-99.99,,2013-01-14 13:53:00,
2013-01-14 08:03:00,14.0,13.0,-100.00,NW,310,2.0,6.0,96,-99.99,,,-99.99,,2013-01-14 14:03:00,
2013-01-14 08:13:00,14.0,13.0,-100.00,NNW,330,6.0,9.0,96,-99.99,,,-99.99,,2013-01-14 14:13:00,
2013-01-14 08:23:00,14.0,13.0,-100.00,NNW,340,4.0,9.0,95,-99.99,,,-99.99,,2013-01-14 14:23:00,
2013-01-14 08:33:00,15.0,14.0,-100.00,NW,310,4.0,10.0,94,-99.99,,,-99.99,,2013-01-14 14:33:00,
2013-01-14 08:43:00,15.0,14.0,-100.00,NW,310,4.0,10.0,94,-99.99,,,-99.99,,2013-01-14 14:43:00,
2013-01-14 08:53:00,16.0,14.0,-100.00,WNW,300,4.0,8.0,93,-99.99,,,-99.99,,2013-01-14 14:53:00,
2013-01-14 09:03:00,16.0,14.0,-100.00,WNW,300,4.0,8.0,93,-99.99,,,-99.99,,2013-01-14 15:03:00,
2013-01-14 09:12:00,17.0,15.0,-100.00,NW,325,4.0,11.0,91,-99.99,,,-99.99,,2013-01-14 15:12:00,
2013-01-14 09:23:00,17.0,14.0,-100.00,NNW,335,6.0,13.0,88,-99.99,,,-99.99,,2013-01-14 15:23:00,
2013-01-14 09:33:00,17.0,14.0,-100.00,NNW,335,6.0,13.0,88,-99.99,,,-99.99,,2013-01-14 15:33:00,
2013-01-14 09:43:00,18.0,15.0,-100.00,NNW,345,9.0,13.0,86,-99.99,,,-99.99,,2013-01-14 15:43:00,
2013-01-14 09:53:00,19.0,15.0,-100.00,NNW,335,7.0,11.0,83,-99.99,,,-99.99,,2013-01-14 15:53:00,
2013-01-14 10:03:00,19.0,15.0,-100.00,NNW,335,7.0,11.0,83,-99.99,,,-99.99,,2013-01-14 16:03:00,
2013-01-14 10:12:00,20.0,15.0,-100.00,NW,315,4.0,7.0,81,-99.99,,,-99.99,,2013-01-14 16:12:00,
2013-01-14 10:23:00,19.0,15.0,-100.00,NW,320,5.0,9.0,82,-99.99,,,-99.99,,2013-01-14 16:23:00,
2013-01-14 10:33:00,19.0,15.0,-100.00,NW,320,5.0,9.0,82,-99.99,,,-99.99,,2013-01-14 16:33:00,
2013-01-14 10:43:00,19.0,14.0,-100.00,NW,325,5.0,9.0,81,-99.99,,,-99.99,,2013-01-14 16:43:00,
2013-01-14 10:53:00,19.0,14.0,-100.00,NNW,340,8.0,11.0,81,-99.99,,,-99.99,,2013-01-14 16:53:00,
2013-01-14 11:03:00,19.0,14.0,-100.00,NNW,340,8.0,11.0,81,-99.99,,,-99.99,,2013-01-14 17:03:00,
2013-01-14 11:12:00,20.0,15.0,-100.00,WNW,290,4.0,9.0,82,-99.99,,,-99.99,,2013-01-14 17:12:00,
2013-01-14 11:23:00,20.0,15.0,-100.00,WNW,285,1.0,9.0,82,-99.99,,,-99.99,,2013-01-14 17:23:00,
2013-01-14 11:33:00,20.0,15.0,-100.00,WNW,285,1.0,9.0,82,-99.99,,,-99.99,,2013-01-14 17:33:00,
2013-01-14 11:43:00,20.0,16.0,-100.00,WNW,295,4.0,6.0,82,-99.99,,,-99.99,,2013-01-14 17:43:00,
2013-01-14 11:54:00,21.0,16.0,-100.00,NW,310,2.0,7.0,82,-99.99,,,-99.99,,2013-01-14 17:54:00,
2013-01-14 12:03:00,21.0,16.0,-100.00,NW,310,2.0,7.0,82,-99.99,,,-99.99,,2013-01-14 18:03:00,
2013-01-14 12:13:00,21.0,16.0,-100.00,NW,310,3.0,6.0,80,-99.99,,,-99.99,,2013-01-14 18:13:00,
2013-01-14 12:23:00,21.0,16.0,-100.00,WNW,295,2.0,6.0,80,-99.99,,,-99.99,,2013-01-14 18:23:00,
2013-01-14 12:33:00,21.0,16.0,-100.00,WNW,295,2.0,6.0,80,-99.99,,,-99.99,,2013-01-14 18:33:00,
2013-01-14 12:43:00,21.0,16.0,-100.00,NNW,335,1.0,7.0,80,-99.99,,,-99.99,,2013-01-14 18:43:00,
2013-01-14 12:53:00,22.0,17.0,-100.00,WNW,300,4.0,6.0,80,-99.99,,,-99.99,,2013-01-14 18:53:00,
2013-01-14 13:03:00,22.0,17.0,-100.00,WNW,300,4.0,6.0,80,-99.99,,,-99.99,,2013-01-14 19:03:00,
2013-01-14 13:12:00,22.0,17.0,-100.00,WNW,300,4.0,6.0,80,-99.99,,,-99.99,,2013-01-14 19:12:00,
2013-01-14 13:22:00,23.0,17.0,-100.00,WNW,290,4.0,9.0,80,-99.99,,,-99.99,,2013-01-14 19:22:00,
2013-01-14 13:33:00,23.0,17.0,-100.00,WNW,290,4.0,9.0,80,-99.99,,,-99.99,,2013-01-14 19:33:00,
2013-01-14 13:43:00,23.0,18.0,-100.00,NNW,330,6.0,9.0,79,-99.99,,,-99.99,,2013-01-14 19:43:00,
2013-01-14 13:53:00,24.0,18.0,-100.00,NW,310,3.0,7.0,78,-99.99,,,-99.99,,2013-01-14 19:53:00,
2013-01-14 14:03:00,24.0,18.0,-100.00,NW,310,3.0,7.0,78,-99.99,,,-99.99,,2013-01-14 20:03:00,
2013-01-14 14:13:00,25.0,18.0,-100.00,WNW,295,1.0,8.0,77,-99.99,,,-99.99,,2013-01-14 20:13:00,
2013-01-14 14:22:00,26.0,19.0,-100.00,NW,325,4.0,5.0,75,-99.99,,,-99.99,,2013-01-14 20:22:00,
2013-01-14 14:33:00,26.0,19.0,-100.00,NW,325,4.0,5.0,75,-99.99,,,-99.99,,2013-01-14 20:33:00,
2013-01-14 14:43:00,26.0,19.0,-100.00,SW,220,0.0,4.0,74,-99.99,,,-99.99,,2013-01-14 20:43:00,
2013-01-14 14:53:00,26.0,18.0,-100.00,North,0,1.0,5.0,73,-99.99,,,-99.99,,2013-01-14 20:53:00,
2013-01-14 15:03:00,26.0,18.0,-100.00,North,0,1.0,5.0,73,-99.99,,,-99.99,,2013-01-14 21:03:00,
2013-01-14 15:12:00,26.0,19.0,-100.00,NNE,20,0.0,3.0,74,-99.99,,,-99.99,,2013-01-14 21:12:00,
2013-01-14 15:23:00,27.0,20.0,-100.00,NE,40,1.0,4.0,75,-99.99,,,-99.99,,2013-01-14 21:23:00,
2013-01-14 15:33:00,27.0,20.0,-100.00,NE,40,1.0,4.0,75,-99.99,,,-99.99,,2013-01-14 21:33:00,
2013-01-14 15:42:00,26.0,19.0,-100.00,NNW,345,0.0,6.0,74,-99.99,,,-99.99,,2013-01-14 21:42:00,
2013-01-14 15:53:00,27.0,19.0,-100.00,West,275,0.0,4.0,73,-99.99,,,-99.99,,2013-01-14 21:53:00,
2013-01-14 16:03:00,27.0,19.0,-100.00,West,275,0.0,4.0,73,-99.99,,,-99.99,,2013-01-14 22:03:00,
2013-01-14 16:12:00,27.0,19.0,-100.00,WSW,250,0.0,4.0,73,-99.99,,,-99.99,,2013-01-14 22:12:00,
2013-01-14 16:23:00,26.0,19.0,-100.00,ENE,60,0.0,5.0,73,-99.99,,,-99.99,,2013-01-14 22:23:00,
2013-01-14 16:33:00,26.0,19.0,-100.00,ENE,60,0.0,5.0,73,-99.99,,,-99.99,,2013-01-14 22:33:00,
2013-01-14 16:43:00,26.0,19.0,-100.00,ENE,60,0.0,5.0,73,-99.99,,,-99.99,,2013-01-14 22:43:00,
2013-01-14 20:01:00,-999.0,-99.9,-100.00,NNW,335,0.0,1.0,-999,-99.99,,,-99.99,,2013-01-15 02:01:00,
2013-01-14 21:33:00,20.0,19.0,-100.00,NNW,335,0.0,1.0,96,-99.99,,,-99.99,,2013-01-15 03:33:00,
2013-01-14 21:42:00,19.0,19.0,-100.00,NNW,335,1.0,2.0,97,-99.99,,,-99.99,,2013-01-15 03:42:00,
2013-01-14 21:53:00,19.0,19.0,-100.00,NW,325,4.0,5.0,98,-99.99,,,-99.99,,2013-01-15 03:53:00,
2013-01-14 22:02:00,19.0,19.0,-100.00,NW,325,4.0,5.0,98,-99.99,,,-99.99,,2013-01-15 04:02:00,
2013-01-14 22:12:00,19.0,19.0,-100.00,North,350,0.0,4.0,99,-99.99,,,-99.99,,2013-01-15 04:12:00,
2013-01-14 22:22:00,19.0,18.0,-100.00,NNW,330,3.0,4.0,99,-99.99,,,-99.99,,2013-01-15 04:22:00,
2013-01-14 22:32:00,19.0,18.0,-100.00,NNW,330,3.0,4.0,99,-99.99,,,-99.99,,2013-01-15 04:32:00,
2013-01-14 22:42:00,19.0,18.0,-100.00,NNW,330,3.0,4.0,99,-99.99,,,-99.99,,2013-01-15 04:42:00,
2013-01-14 22:52:00,18.0,18.0,-100.00,North,0,1.0,4.0,99,-99.99,,,-99.99,,2013-01-15 04:52:00,
2013-01-14 23:03:00,18.0,18.0,-100.00,North,0,1.0,4.0,99,-99.99,,,-99.99,,2013-01-15 05:03:00,
2013-01-14 23:12:00,18.0,18.0,-100.00,NNW,345,1.0,5.0,99,-99.99,,,-99.99,,2013-01-15 05:12:00,
2013-01-14 23:22:00,18.0,18.0,-100.00,NNW,335,1.0,4.0,99,-99.99,,,-99.99,,2013-01-15 05:22:00,
2013-01-14 23:33:00,18.0,18.0,-100.00,NNW,335,1.0,4.0,99,-99.99,,,-99.99,,2013-01-15 05:33:00,
2013-01-14 23:42:00,18.0,18.0,-100.00,North,0,1.0,2.0,98,-99.99,,,-99.99,,2013-01-15 05:42:00,
2013-01-14 23:53:00,18.0,17.0,-100.00,NE,40,0.0,2.0,98,-99.99,,,-99.99,,2013-01-15 05:53:00,